Regional Weather Roundup
Issued by NWS Albany, NY

Home | Current Version | Previous Version | Text Only | Print | Product List | Glossary On
Versions: 1 2 3 4 5 6 7 8 9 10 11 12 13 14 15 16 17 18 19 20 21 22 23 24 25 26 27 28 29 30 31 32 33 34 35 36 37 38 39 40 41 42 43 44 45 46 47 48 49 50
475
ASUS41 KALY 281910
RWRALY

NEW YORK STATE HOURLY WEATHER ROUNDUP
NATIONAL WEATHER SERVICE ALBANY NY
300 PM EDT TUE MAR 28 2017

NOTE: "FAIR" INDICATES FEW OR NO CLOUDS BELOW 12,000 FEET WITH NO
SIGNIFICANT WEATHER AND/OR NO OBSTRUCTIONS TO VISIBILITY.

NYZ032-033-038>043-046>054-057>066-NYZ062>081-082-084-282000-
EAST


CITY           SKY/WX    TMP DP  RH WIND       PRES   REMARKS
ALBANY         LGT RAIN  48  44  86 S10       29.91F
GLENS FALLS    LGT RAIN  50  44  80 SW7       29.90S
POUGHKEEPSIE   HVY RAIN  43  42  97 E5        29.93F FOG
NEWBURGH       CLOUDY    45  45 100 E6        29.93F FOG
MONTGOMERY     RAIN      46  44  93 E5        29.89F FOG
WHITE PLAINS   LGT RAIN  42  41  96 E6        29.92F FOG
ISLIP          LGT RAIN  44  44 100 NE7       29.91F
NEW YORK CITY  LGT RAIN  43  39  86 NE16      29.91F FOG
CENTRAL PARK   LGT RAIN  43  42  97 VRB5      29.93F FOG
$$

NYZ005>009-017-018-044>046-055-056-282000-
CENTRAL


CITY           SKY/WX    TMP DP  RH WIND       PRES   REMARKS
FULTON         FOG       43  42  97 N8        29.93S VSB 3/4
SYRACUSE       CLOUDY    48  47  96 NW7       29.91S FOG
ROME           CLOUDY    51  46  83 W5        29.91S
ELMIRA         CLOUDY    53  48  83 NE13      29.89R
BINGHAMTON     FOG       49  48  97 CALM      29.87F VSB 1
MONTICELLO     CLOUDY    43  43 100 NE3       29.90F
$$

NYZ026>034-041>043-087-282000-
NORTH


CITY           SKY/WX    TMP DP  RH WIND       PRES   REMARKS
WATERTOWN      CLOUDY    41  41 100 NE13      29.95S FOG
FORT DRUM      NOT AVBL
MASSENA        CLOUDY    41  39  93 NW7       29.97S
SARANAC LAKE   CLOUDY    44  43  96 VRB5      29.87S
PLATTSBURGH    LGT RAIN  37  36  96 N7        29.92R FOG     WCI  32
$$

NYZ001>004-010>016-019>021-085-282000-
WEST


CITY           SKY/WX    TMP DP  RH WIND       PRES   REMARKS
NIAGARA FALLS  CLOUDY    47  38  71 N13       29.98R
BUFFALO        CLOUDY    45  38  76 NW9       29.97R
DUNKIRK        CLOUDY    43  39  86 NE7       29.99R
JAMESTOWN      CLOUDY    45  41  87 N14       29.94R
WELLSVILLE     CLOUDY    53  49  86 N5        29.91R FOG
ROCHESTER      CLOUDY    46  41  82 N8        29.96S
PENN YAN       CLOUDY    49  44  83 NW8       29.93R
$$

             KEY
       WCI = WIND CHILL INDEX
       VSB = VISIBILITY
       HX  = HEAT INDEX
$$




USA.gov is the U.S. government's official web portal to all federal, state and local government web resources and services.